EHI
0 0 0 0 0 0 0 0 0 0 0 0 0 0 0 0 0 0 0 0 0 0 0 0 0 0 0 0 0 0 0 0 0 0 0 0 0 0
0 0 0 0 0 0 0 0 0 0 0 0 0 0 0 0 0 0 0 0 0 0 0 0 0 0 0 0 0 0 0 0 0 0 0 0 0 0
0 0 0 0 0 0 0 0 0 0 0 0 0 0 0 0 0 0 0 0 0 0 0 0 0 0 0 0 0 0 0 0 0 0 0 0 0 0
0 0 0 0 0 0 0 0 0 0 0 0 0 0 0 0 0 0 0 0 0 0 0 0 0 0 0 0 0 0 0 0 0 0 0 0 0 0
0 0 0 0 0 0 0 0 0 0 0 0 0 0 0 0 0 0 0 0 0 0 0 0 0 0 0 0 0 0 0 0 0 0 0 0 0 0
0 0 0 0 0 0 0 0 0 0 0 0 0 0 0 0 0 0 0 0 0 0 0 0 0 0 0 0 0 0 0 0 0 0 0 0 0 0
0 0 0 0 0 0 0 0 0 0 0 0 0 0 0 0 0 0 0 0 0 0 0 0 0 0 0 0 0 0 0 0 0 0 0 0 0 0
0 0 0 0 0 0 0 0 0 0 0 0 0 0 0 0 0 0 0 0 0 0 0 0 0 0 0 0 0 0 0 0 0 0 0 0 0 0
0 0 0 0 0 0 0 0 0 0 0 0 0 0 0 0 0 0 0 0 0 0 0 0 0 0 0 0 0 0 0 0 0 0 0 0 0 0
0 0 0 0 0 0 0 0 0 0 0 0 0 0 0 0 0 0 0 0 0 0 0 0 0 0 0 0 0 0 0 0 0 0 0 0 0 0
0 0 0 0 0 0 0 0 0 0 0 0 0 0 0 0 0 0 0 0 0 0 0 0 0 0 0 0 0 0 0 0 0 0 0 0 0 0
0 0 0 0 0 0 0 0 0 0 0 0 0 0 0 0 0 0 0 0 0 0 0 0 0 0 0 0 0 0 0 0 0 0 0 0 0 0
0 0 0 0 0 0 0 0 0 0 0 0 0 0 0 0 0 0 0 0 0 0 0 0 0 0 0 0 0 0 0 0 0 0 0 0 0 0
0 0 0 0 0 0 0 0 0 0 0 0 0 0 0 0 0 0 0 0 0 0 0 0 0 0 0 0 0 0 0 0 0 0 0 0 0 0
0 0 0 0 0 0 0 0 0 0 0 0 0 0 0 0 0 0 0 0 0 0 0 0 0 0 0 0 0 0 0 0 0 0 0 0 0 0
0 0 0 0 0 0 0 0 0 0 0 0 0 0 0 0 0 0 0 0 0 0 0 0 0 0 0 0 0 0 0 0 0 0 0 0 0 0
0 0 0 0 0 0 0 0 0 0 0 0 0 0 0 0 0 0 0 0 0 0 0 0 0 0 0 0 0 0 0 0 0 0 0 0 0 0
0 0 0 0 0 0 0 0 0 0 0 0 0 0 0 0 0 0 0 0 0 0 0 0 0 0 0 0 0 0 0 0 0 0 0 0 0 0
0 0 0 0 0 0 0 0 0 0 0 0 0 0 0 0 0 0 0 0 0 0 0 0 0 0 0 0 0 0 0 0 0 0 0 0 0 0
0 0 0 0 0 0 0 0 0 0 0 0 0 0 0 0 0 0 0 0 0 0 0 0 0 0 0 0 0 0 0 0 0 0 0 0 0 0
0 0 0 0 0 0 0 0 0 0 0 0 0 0 0 0 0 0 0 0 0 0 0 0 0 0 0 0 0 0 0 0 0 0 0 0 0 0
0 0 0 0 0 0 0 0 0 0 0 0 0 0 0 0 0 0 0 0 0 0 0 0 0 0 0 0 0 0 0 0 0 0 0 0 0 0
0 0 0 0 0 0 0 0 0 0 0 0 0 0 0 0 0 0 0 0 0 0 0 0 0 0 0 0 0 0 0 0 0 0 0 0 0 0
Wind_Speed
2 2 2 1 1 1 1 1 2 2 3 2 1 1 1 1 3 3 3 6 8 9 9 8 8 9 9 9 10 10 10 11 11 12 12 12 13 13
2 2 2 1 1 1 2 2 2 3 3 2 2 2 2 3 5 3 3 7 8 9 9 9 8 8 9 9 9 10 10 11 11 11 12 12 13 13
3 3 3 2 2 2 2 2 2 2 4 4 2 2 3 3 4 3 3 3 3 8 10 9 8 8 8 8 9 9 10 10 10 11 12 12 13 13
3 3 4 3 3 3 2 3 3 3 3 5 3 2 3 3 3 4 4 3 3 7 9 9 8 8 8 8 8 9 9 9 10 11 11 12 13 13
3 4 4 4 4 3 3 3 3 3 3 3 3 2 2 2 3 4 4 3 4 5 8 8 8 8 8 8 8 9 9 9 10 10 11 12 12 13
3 3 4 4 4 4 4 3 3 3 2 3 3 3 2 2 2 3 4 3 4 4 5 6 7 8 8 9 8 9 9 9 9 10 11 11 12 12
3 3 3 5 5 4 4 3 3 3 3 3 3 3 3 2 2 2 4 4 4 3 3 3 3 3 3 6 7 8 8 9 9 10 11 11 12 12
3 3 3 3 4 6 6 5 4 3 3 3 3 3 4 3 3 3 3 3 4 2 3 4 2 3 3 3 7 8 8 9 10 10 11 11 12 12
3 3 3 3 3 2 4 5 5 5 6 4 4 5 4 4 3 3 3 3 4 3 3 4 2 3 4 5 8 9 9 9 10 10 10 11 11 11
3 3 3 3 3 3 3 3 3 3 4 4 4 5 4 3 4 4 4 4 4 3 2 3 3 3 4 3 7 9 9 9 9 10 10 11 11 12
3 3 3 3 5 4 3 3 3 3 3 5 6 6 7 7 5 2 2 3 4 3 1 1 2 3 3 3 4 7 8 9 10 10 11 11 11 11
2 2 4 4 5 5 3 3 3 3 3 3 4 5 4 5 6 3 3 3 3 3 1 1 1 2 3 2 2 3 4 7 9 10 11 11 11 6
2 2 2 5 6 6 5 3 5 4 2 2 2 2 2 2 2 2 2 3 3 3 2 1 1 1 2 3 3 2 2 3 3 5 8 11 11 8
2 2 3 5 5 6 4 4 5 4 1 1 2 2 2 2 2 2 2 3 3 4 3 2 2 2 2 4 4 3 3 3 3 3 3 7 8 10
2 4 5 5 5 3 4 5 3 2 1 2 2 3 2 2 2 2 2 2 2 2 2 2 2 2 2 3 4 3 4 3 3 3 3 3 3 4
2 3 4 4 3 3 3 2 2 2 2 2 2 2 2 1 1 1 2 1 1 2 2 3 2 3 3 4 4 4 3 3 3 4 4 3 3 3
2 1 1 1 1 1 1 1 1 1 2 2 2 2 2 2 2 1 1 1 1 2 2 2 2 2 3 3 3 4 3 3 3 3 3 4 3 3
3 2 2 2 2 2 2 2 2 2 2 2 2 2 2 2 2 1 1 1 2 2 2 2 2 2 2 2 3 3 3 3 3 3 3 3 4 3
2 2 2 3 3 2 2 2 2 2 2 2 2 2 2 1 1 1 2 2 2 2 2 1 1 1 2 3 3 2 2 3 3 3 2 3 4 4
2 3 3 3 2 2 2 2 2 2 1 2 2 1 1 1 1 2 2 2 2 2 1 1 1 1 2 3 3 3 4 3 3 3 3 3 3 5
3 3 3 3 2 2 2 2 2 2 2 2 2 2 1 1 2 2 2 2 2 1 2 2 2 3 2 1 2 3 3 3 3 3 3 2 3 3
3 2 2 2 2 2 2 2 2 2 2 2 2 1 1 2 2 2 2 1 2 2 2 2 1 1 1 1 3 3 4 3 3 4 3 3 1 1
2 2 2 2 2 2 2 2 3 2 2 2 2 1 2 2 2 2 2 2 1 1 1 1 1 1 1 1 2 3 3 4 3 3 3 4 4 5
Wind_Direction
217 225 224 223 212 233 234 201 207 265 277 267 275 284 290 281 288 283 274 296 302 304 307 306 304 307 310 311 312 313 314 314 313 313 314 314 314 313
209 218 229 229 228 226 231 236 224 231 259 273 273 294 302 308 305 302 281 299 300 304 305 303 302 307 309 310 311 312 314 314 314 315 316 317 317 317
220 219 227 220 229 234 231 232 235 230 254 276 281 295 301 301 305 298 292 285 284 299 302 300 304 307 310 313 314 314 315 314 315 316 317 317 316 317
228 224 225 226 230 230 228 236 238 233 243 267 277 278 283 286 293 297 305 304 286 295 302 300 301 305 307 310 313 314 315 316 317 318 318 317 316 317
225 227 228 223 234 234 232 237 243 254 245 252 270 274 280 295 301 298 295 295 299 299 299 296 300 304 309 313 316 315 315 316 316 318 318 316 316 315
229 226 226 224 229 229 235 237 242 250 249 252 267 274 278 289 295 297 304 303 302 304 305 301 298 302 306 311 312 314 315 316 317 318 319 319 318 315
238 239 236 235 238 236 237 227 229 240 246 253 263 276 275 287 283 287 290 302 299 291 306 298 298 294 295 301 305 310 313 316 317 317 319 320 318 317
242 244 247 246 252 259 258 253 240 232 233 243 259 264 272 273 280 285 289 305 298 300 304 295 295 292 292 284 298 307 311 314 316 318 320 320 319 318
237 242 260 261 262 246 256 266 263 257 249 244 250 256 265 265 269 280 281 284 280 289 300 287 284 282 288 291 301 308 310 312 315 318 321 322 323 322
240 236 237 244 248 241 232 244 251 258 258 252 243 251 255 254 246 256 266 280 283 281 275 275 288 288 292 285 296 309 314 318 319 319 321 323 325 326
251 246 238 240 254 256 242 241 252 261 266 260 261 266 276 282 281 274 278 286 290 286 278 264 288 303 291 277 293 315 322 321 321 323 325 329 332 330
262 254 250 254 260 265 250 237 248 256 260 269 264 268 270 274 276 255 243 263 281 279 265 276 286 329 312 292 294 311 314 316 322 324 326 330 333 333
263 260 256 263 268 268 270 254 254 264 254 257 260 266 273 267 266 257 242 239 253 260 255 273 278 296 276 296 301 297 304 310 318 320 325 329 329 329
259 256 259 268 274 281 281 269 270 275 260 255 260 266 270 272 274 270 265 259 249 251 248 244 255 263 278 289 293 307 314 311 316 318 314 323 326 327
258 267 274 277 285 280 280 279 278 263 245 252 260 267 262 262 272 284 286 286 289 276 260 249 245 254 261 274 285 297 311 310 312 316 316 316 318 326
269 267 280 285 288 284 285 280 259 242 242 250 263 269 272 273 277 283 290 299 306 298 273 259 252 245 263 270 275 286 293 295 314 315 310 308 312 318
274 264 253 255 256 260 261 260 252 251 260 259 257 266 275 283 287 289 282 292 277 291 305 305 293 272 258 262 271 277 285 290 293 303 309 311 305 309
272 251 243 237 241 247 249 259 253 249 251 252 257 262 266 272 286 295 288 275 274 278 284 301 323 327 315 301 255 265 281 287 299 305 307 304 309 316
256 250 248 242 243 247 249 253 257 252 247 243 250 256 264 267 278 288 288 283 275 275 278 281 298 299 301 307 303 275 281 297 304 304 304 299 298 308
241 245 245 242 240 245 249 254 256 247 241 246 248 249 250 254 261 268 272 277 278 280 285 279 271 267 266 278 288 293 287 279 291 297 304 301 296 301
246 245 246 245 238 239 246 252 251 244 243 243 247 241 234 238 251 256 260 273 273 272 279 283 277 294 287 283 291 297 299 288 281 281 299 313 320 328
248 252 253 244 236 235 238 237 241 240 238 237 240 238 229 230 239 242 242 251 261 265 274 285 294 310 299 282 288 296 311 325 324 311 287 270 271 298
249 245 246 245 239 236 236 233 235 237 233 228 229 231 224 228 230 232 236 242 252 265 276 290 310 313 292 276 284 292 310 320 327 338 330 318 294 280